SQ9NFI-4 Weather Reports


Display with metric or nautical units.
time (UTC)temp
F
wind
direction
speed
MPH
gust
MPH
rain 1hr
in
rain 24hr
in
rain mn
in
humidity
%
barometer
mb
20260504081644 73 284 4.0 10.0 0.00 0.00 0.00 29 1016.9
20260504081144 72 157 13.0 17.0 0.00 0.00 0.00 28 1016.9
20260504080644 73 196 14.0 14.0 0.00 0.00 0.00 29 1016.9
20260504080144 72 172 15.0 15.0 0.00 0.00 0.00 28 1016.6
20260504050516 53 358 0.0 1.0 0.00 0.00 0.00 65 1016.6
20260504050016 53 345 0.0 0.0 0.00 0.00 0.00 70 1016.6
20260504045516 51 340 1.0 1.0 0.00 0.00 0.00 71 1016.6
20260504045016 50 352 1.0 1.0 0.00 0.00 0.00 72 1016.3
20260504044516 49 351 1.0 1.0 0.00 0.00 0.00 73 1016.3
20260504044016 47 346 0.0 0.0 0.00 0.00 0.00 79 1016.3
20260504043516 47 326 0.0 1.0 0.00 0.00 0.00 80 1016.6
20260504043016 46 15 1.0 1.0 0.00 0.00 0.00 80 1016.6
20260504042516 46 352 1.0 1.0 0.00 0.00 0.00 80 1016.6
20260504042016 45 345 0.0 1.0 0.00 0.00 0.00 81 1016.6
20260504041516 44 344 0.0 0.0 0.00 0.00 0.00 84 1016.6
20260504041016 42 345 0.0 0.0 0.00 0.00 0.00 86 1016.3
20260504040516 41 346 0.0 0.0 0.00 0.00 0.00 89 1016.3
20260504040016 40 344 0.0 0.0 0.00 0.00 0.00 90 1016.3
20260504035516 40 345 0.0 0.0 0.00 0.00 0.00 92 1016.3
20260504035016 39 343 0.0 0.0 0.00 0.00 0.00 93 1016.3
20260504034516 39 344 0.0 0.0 0.00 0.00 0.00 95 1016.3
20260504034016 38 343 0.0 0.0 0.00 0.00 0.00 95 1016.3
20260504033516 38 343 0.0 0.0 0.00 0.00 0.00 95 1016.3
20260504033016 39 343 1.0 1.0 0.00 0.00 0.00 95 1016.3
20260504032516 38 343 0.0 0.0 0.00 0.00 0.00 93 1015.9
20260504032016 38 344 0.0 0.0 0.00 0.00 0.00 93 1015.9
20260504031516 38 345 0.0 0.0 0.00 0.00 0.00 92 1015.9
20260504031016 38 344 0.0 0.0 0.00 0.00 0.00 91 1015.9
20260504030516 38 342 0.0 0.0 0.00 0.00 0.00 91 1015.9
20260504030016 38 342 0.0 0.0 0.00 0.00 0.00 91 1015.9
20260504025516 39 346 0.0 0.0 0.00 0.00 0.00 91 1015.9
20260504025016 39 352 1.0 1.0 0.00 0.00 0.00 92 1015.9
20260504024516 40 348 1.0 1.0 0.00 0.00 0.00 93 1015.9
20260504024016 40 348 0.0 0.0 0.00 0.00 0.00 93 1015.9
20260504023516 40 348 1.0 1.0 0.00 0.00 0.00 92 1015.9
20260504023016 40 342 0.0 0.0 0.00 0.00 0.00 90 1015.9
20260504022516 40 342 0.0 0.0 0.00 0.00 0.00 89 1015.9
20260504022016 40 345 1.0 1.0 0.00 0.00 0.00 91 1015.9
20260504021516 40 352 1.0 1.0 0.00 0.00 0.00 92 1015.9
20260504021016 40 342 0.0 0.0 0.00 0.00 0.00 91 1015.9
20260504020516 40 356 1.0 2.0 0.00 0.00 0.00 93 1015.9
20260504020016 41 345 0.0 0.0 0.00 0.00 0.00 94 1015.9
20260504015516 41 333 0.0 1.0 0.00 0.00 0.00 95 1015.9
20260504015016 40 332 0.0 0.0 0.00 0.00 0.00 93 1015.9
20260504014516 41 335 0.0 1.0 0.00 0.00 0.00 92 1015.9
20260504014016 41 338 0.0 0.0 0.00 0.00 0.00 93 1015.9
20260504013516 41 329 0.0 0.0 0.00 0.00 0.00 91 1016.3
20260504013016 42 327 2.0 2.0 0.00 0.00 0.00 91 1016.3
20260504012516 41 333 1.0 1.0 0.00 0.00 0.00 89 1016.3
20260504012016 41 356 0.0 1.0 0.00 0.00 0.00 91 1016.3
20260504011516 41 320 1.0 1.0 0.00 0.00 0.00 90 1016.3
20260504011016 41 320 1.0 2.0 0.00 0.00 0.00 92 1015.9
20260504010516 41 331 0.0 1.0 0.00 0.00 0.00 92 1015.9
20260504010016 41 353 1.0 1.0 0.00 0.00 0.00 94 1016.3
20260504005516 41 342 0.0 0.0 0.00 0.00 0.00 93 1016.3
20260504005016 41 344 1.0 1.0 0.00 0.00 0.00 94 1016.3
20260504004516 41 351 1.0 1.0 0.00 0.00 0.00 94 1016.3
20260504004016 41 344 0.0 1.0 0.00 0.00 0.00 94 1016.3
20260504003516 41 344 0.0 0.0 0.00 0.00 0.00 93 1016.3
20260504003016 42 347 0.0 1.0 0.00 0.00 0.00 94 1016.3
20260504002516 42 344 1.0 1.0 0.00 0.00 0.00 93 1016.3
20260504002016 42 349 1.0 1.0 0.00 0.00 0.00 93 1016.3
20260504001516 42 340 0.0 1.0 0.00 0.00 0.00 93 1016.3
20260504001016 42 348 0.0 0.0 0.00 0.00 0.00 93 1016.6
20260504000516 42 347 0.0 0.0 0.00 0.00 0.00 93 1016.6
20260504000016 42 346 0.0 0.0 0.00 0.00 0.00 92 1016.6
20260503235516 42 344 1.0 1.0 0.00 0.00 0.00 93 1016.6
20260503235016 42 343 0.0 0.0 0.00 0.00 0.00 92 1016.6
20260503234516 42 342 0.0 0.0 0.00 0.00 0.00 93 1016.6
20260503234016 43 338 1.0 1.0 0.00 0.00 0.00 93 1016.6
20260503233516 43 352 1.0 1.0 0.00 0.00 0.00 92 1016.6
20260503233016 43 343 0.0 0.0 0.00 0.00 0.00 92 1016.6
20260503232516 43 341 0.0 0.0 0.00 0.00 0.00 91 1016.6
20260503232016 44 337 0.0 0.0 0.00 0.00 0.00 90 1016.6
20260503231516 44 342 0.0 0.0 0.00 0.00 0.00 90 1016.6
20260503231016 44 346 0.0 0.0 0.00 0.00 0.00 89 1016.9
20260503230516 44 344 1.0 1.0 0.00 0.00 0.00 89 1016.9
20260503230016 44 1 2.0 2.0 0.00 0.00 0.00 90 1016.9
20260503225516 44 351 0.0 1.0 0.00 0.00 0.00 90 1016.9
20260503224516 45 346 0.0 1.0 0.00 0.00 0.00 87 1016.9
20260503224016 45 352 1.0 1.0 0.00 0.00 0.00 88 1016.9
20260503223016 46 0 1.0 2.0 0.00 0.00 0.00 86 1016.9
20260503222516 46 7 2.0 2.0 0.00 0.00 0.00 84 1016.9
20260503222016 46 358 1.0 2.0 0.00 0.00 0.00 86 1016.9
20260503221516 46 356 1.0 2.0 0.00 0.00 0.00 85 1016.9
20260503221016 46 358 1.0 1.0 0.00 0.00 0.00 86 1016.9
20260503220016 46 7 2.0 2.0 0.00 0.00 0.00 86 1016.9
20260503215516 47 355 1.0 2.0 0.00 0.00 0.00 87 1016.9
20260503215016 47 351 1.0 1.0 0.00 0.00 0.00 87 1016.9
20260503214516 47 4 1.0 2.0 0.00 0.00 0.00 85 1016.9
20260503214016 47 347 0.0 0.0 0.00 0.00 0.00 85 1016.9
20260503213516 47 351 2.0 2.0 0.00 0.00 0.00 88 1016.9
20260503213016 47 342 1.0 1.0 0.00 0.00 0.00 87 1016.9
20260503212516 47 341 1.0 1.0 0.00 0.00 0.00 88 1016.9
20260503211016 48 348 1.0 1.0 0.00 0.00 0.00 85 1016.9
20260503210516 49 340 0.0 1.0 0.00 0.00 0.00 84 1016.9
20260503210016 49 351 1.0 1.0 0.00 0.00 0.00 86 1016.9
20260503205016 49 339 0.0 1.0 0.00 0.00 0.00 86 1016.9
20260503204016 49 335 1.0 1.0 0.00 0.00 0.00 84 1016.9
20260503203516 50 334 1.0 1.0 0.00 0.00 0.00 83 1016.9
20260503203016 50 335 0.0 0.0 0.00 0.00 0.00 83 1016.9
20260503202516 50 335 0.0 0.0 0.00 0.00 0.00 83 1016.9
20260503202016 51 337 0.0 1.0 0.00 0.00 0.00 81 1016.9
20260503201516 51 337 0.0 0.0 0.00 0.00 0.00 82 1016.9
20260503201016 51 335 0.0 0.0 0.00 0.00 0.00 81 1016.9
20260503200516 51 340 0.0 0.0 0.00 0.00 0.00 80 1016.9
20260503200016 52 338 0.0 0.0 0.00 0.00 0.00 79 1016.6
20260503195516 52 342 0.0 1.0 0.00 0.00 0.00 78 1016.6
20260503195016 52 337 0.0 1.0 0.00 0.00 0.00 80 1016.9
20260503194516 53 338 0.0 0.0 0.00 0.00 0.00 79 1016.9
20260503194016 53 337 0.0 0.0 0.00 0.00 0.00 80 1016.9
20260503193516 53 337 0.0 0.0 0.00 0.00 0.00 79 1016.9
20260503193016 53 336 0.0 0.0 0.00 0.00 0.00 77 1016.9
20260503192516 54 337 0.0 0.0 0.00 0.00 0.00 76 1016.6
20260503192016 54 338 0.0 0.0 0.00 0.00 0.00 78 1016.6
20260503191516 55 338 0.0 0.0 0.00 0.00 0.00 76 1016.6
20260503191016 55 337 1.0 1.0 0.00 0.00 0.00 68 1016.6
20260503190516 56 336 0.0 0.0 0.00 0.00 0.00 77 1016.6
20260503190016 56 336 0.0 0.0 0.00 0.00 0.00 66 1016.6
20260503185516 57 338 1.0 1.0 0.00 0.00 0.00 66 1016.6
20260503185016 57 335 0.0 0.0 0.00 0.00 0.00 69 1016.3
20260503184516 58 330 0.0 0.0 0.00 0.00 0.00 66 1016.3
20260503184016 58 331 0.0 0.0 0.00 0.00 0.00 62 1016.3
20260503183516 58 332 0.0 0.0 0.00 0.00 0.00 65 1016.3
20260503183016 60 336 0.0 0.0 0.00 0.00 0.00 71 1016.3
20260503182516 60 336 0.0 0.0 0.00 0.00 0.00 59 1015.9
20260503182016 61 337 0.0 1.0 0.00 0.00 0.00 62 1015.9
20260503181516 61 322 0.0 0.0 0.00 0.00 0.00 60 1015.9
20260503181016 62 332 0.0 0.0 0.00 0.00 0.00 52 1015.9
20260503180516 64 329 0.0 0.0 0.00 0.00 0.00 56 1015.9
20260503180016 65 329 0.0 0.0 0.00 0.00 0.00 53 1015.9
20260503175516 66 326 0.0 0.0 0.00 0.00 0.00 44 1015.9
20260503175016 67 324 0.0 0.0 0.00 0.00 0.00 42 1015.2
20260503174516 69 318 1.0 1.0 0.00 0.00 0.00 40 1015.2
20260503174016 71 318 0.0 0.0 0.00 0.00 0.00 36 1015.2
20260503173516 73 320 0.0 0.0 0.00 0.00 0.00 35 1015.9
20260503173016 74 327 0.0 0.0 0.00 0.00 0.00 31 1015.9
20260503172516 75 310 1.0 6.0 0.00 0.00 0.00 29 1015.2
20260503172016 76 310 1.0 1.0 0.00 0.00 0.00 29 1015.2
20260503171516 76 296 1.0 1.0 0.00 0.00 0.00 26 1015.2
20260503171016 76 267 2.0 3.0 0.00 0.00 0.00 26 1015.9
20260503170516 77 312 1.0 2.0 0.00 0.00 0.00 26 1015.9
20260503150516 79 258 9.0 11.0 0.00 0.00 0.00 21 1016.6
20260503130516 80 337 1.0 10.0 0.00 0.00 0.00 24 1017.3
20260503110516 78 144 4.0 5.0 0.00 0.00 0.00 25 1019.0